Regional Weather Roundup
Issued by NWS

Home | Current Version | Previous Version | Graphics & Text | Print | Product List | Glossary On
Versions: 1 2 3 4 5 6 7 8 9 10 11 12 13 14 15 16 17 18 19 20 21 22 23 24 25 26 27 28 29 30 31 32 33 34 35 36 37 38 39 40 41 42 43 44 45 46 47 48 49 50
000
ASUS43 KMKX 302321
RWRWI

WISCONSIN REGIONAL WEATHER ROUNDUP
NATIONAL WEATHER SERVICE MILWAUKEE/SULLIVAN WI
500 PM CST FRI JAN 30 2015

NOTE: "FAIR" INDICATES FEW OR NO CLOUDS BELOW 12,000 FEET WITH NO
SIGNIFICANT WEATHER AND/OR OBSTRUCTIONS TO VISIBILITY.

WIZ001-002-006>008-014>016-023>028-310000-
NORTHWEST WISCONSIN

CITY           SKY/WX    TMP DP  RH WIND       PRES   REMARKS
SUPERIOR ARPT  CLOUDY    17   5  59 S8        30.29F WCI   6
ASHLAND        CLOUDY    18   3  52 S3        30.29F
HAYWARD        CLOUDY    15   2  56 S8        30.27F WCI   4
SIREN          MOCLDY    19   7  60 SE7       30.28F WCI  10
CUMBERLAND     PTCLDY    16   5  62 S7        30.28F WCI   6
RICE LAKE      PTCLDY    17   7  62 SE7       30.31F WCI   8
CHETEK         MOCLDY    16   6  63 S7        30.32F WCI   6
LADYSMITH      MOCLDY    16   6  64 S6        30.33F WCI   8
EAU CLAIRE     CLEAR     19   5  54 S7        30.33F WCI  10
MENOMONIE      CLEAR     18   8  63 SE6       30.34F WCI  10
NEW RICHMOND   CLEAR     20  11  69 SE7       30.29F WCI  11
OSCEOLA        CLEAR     22  12  66 SE8       30.31F WCI  12
$$

WIZ003>005-009-010-017-018-310000-
NORTH CENTRAL WISCONSIN

CITY           SKY/WX    TMP DP  RH WIND       PRES   REMARKS
MANITOWISH WTR MOCLDY    14   5  68 S6        30.25F WCI   5
ARBOR VITAE    MOCLDY    18   6  59 CALM      30.26F
WOODRUFF       MOCLDY    18   6  59 CALM      30.26F
RHINELANDER    CLOUDY    17   2  51 SW5       30.27F WCI  10
EAGLE RIVER    MOCLDY    15   5  63 CALM      30.26F
LAND O LAKES   MOCLDY    16   4  58 CALM      30.25F
PHILLIPS       CLOUDY    16   4  59 S7        30.27F WCI   6
TOMAHAWK       CLOUDY    16   4  58 CALM      30.30F
MEDFORD        CLOUDY    15   6  67 S5        30.31F WCI   7
MERRILL        MOCLDY    16   6  64 SW3       30.32F
$$

WIZ029-030-035-036-043>047-310000-
CENTRAL WISCONSIN

CITY           SKY/WX    TMP DP  RH WIND       PRES   REMARKS
WAUSAU         PTCLDY    17   4  56 W5        30.32F WCI  10
MOSINEE        PTCLDY    18   7  62 SW5       30.34F WCI  11
MARSHFIELD     PTCLDY    20   6  55 CALM      30.33F
STEVENS POINT  PTCLDY    17   5  58 CALM      30.35F
WAUPACA        PTCLDY    23   8  52 SW5       30.38F WCI  16
WAUTOMA        MOCLDY    22   7  52 CALM      30.39S
WISC RAPIDS    PTCLDY    20   6  55 S6        30.37F WCI  12
CAMP DOUGLAS   PTCLDY    21   8  56 W3        30.38F
$$

WIZ011>013-019>022-031-037>040-048>050-310000-
NORTHEAST WISCONSIN

CITY           SKY/WX    TMP DP  RH WIND       PRES   REMARKS
ANTIGO         MOCLDY    15   4  63 SW3       30.30F
SHAWANO        MOCLDY    22   7  51 SW3       30.38F
OCONTO         CLOUDY    20   8  58 CALM      30.39S
STURGEON BAY   CLOUDY    18   5  57 SW5       30.41R WCI  11
GREEN BAY      MOCLDY    21   9  59 SW5       30.40S WCI  15
MANITOWOC      MOCLDY    20  12  71 SW3       30.41F
APPLETON       MOCLDY    19   9  63 VRB5      30.39S WCI  13
CLINTONVILLE   MOCLDY    21   7  53 SW5       30.37F WCI  15
OSHKOSH        PTCLDY    22   9  57 SW5       30.39F WCI  16
$$

WIZ032>034-041-042-053>061-310000-
SOUTHWEST WISCONSIN

CITY           SKY/WX    TMP DP  RH WIND       PRES   REMARKS
LA CROSSE      PTCLDY    25   8  48 S8        30.37F WCI  16
SPARTA         CLOUDY    23   7  49 SW3       30.39S
VIROQUA        PTCLDY    23   9  55 SW7       30.35S WCI  14
BOSCOBEL       CLEAR     25   8  48 S7        30.40F WCI  17
PRAIRIE DU CHI CLEAR     26   8  44 S6        30.39F WCI  20
PLATTEVILLE    CLEAR     25  14  63 SE5       30.38F WCI  19
$$

WIZ056-057-062-063-064-067-068-310000-
SOUTH CENTRAL WISCONSIN

CITY           SKY/WX    TMP DP  RH WIND       PRES   REMARKS
REEDSBURG      MOCLDY    23   9  53 SW3       30.38F
BARABOO/DELLS  CLOUDY    22   8  53 CALM      30.37F
LONE ROCK      CLEAR     24   8  50 SW7       30.39F WCI  16
MINERAL POINT  CLEAR     27  10  50 S7        30.37F WCI  19
MADISON        PTCLDY    24   8  50 SW3       30.39F
MIDDLETON      CLOUDY    27   8  45 SW6       30.38F WCI  20
WATERTOWN      CLEAR     22  10  59 SW6       30.39F WCI  14
MONROE         CLEAR     25  14  63 SW7       30.39S WCI  17
JANESVILLE     CLEAR     27  12  54 SW8       30.40F WCI  18
$$

WIZ051-052-058>065-066-070>072-310000-
SOUTHEAST WISCONSIN

CITY           SKY/WX    TMP DP  RH WIND       PRES   REMARKS
MILWAUKEE      PTCLDY    25   6  44 SW8       30.41F WCI  16
WAUKESHA       NOT AVBL
MILWAUKEE/TIMM CLEAR     25   7  46 W6        30.42F WCI  18
RACINE         CLEAR     25   7  46 W7        30.43F WCI  17
BURLINGTON     CLEAR     21   9  59 W5        30.41F WCI  15
KENOSHA        CLEAR     24  10  55 W8        30.41F WCI  15
FOND DU LAC    PTCLDY    22   8  55 S5        30.38F WCI  16
SHEBOYGAN      CLEAR     22   9  57 W9        30.39F WCI  12
WEST BEND      CLEAR     23   7  50 SW5       30.39F WCI  17
JUNEAU         PTCLDY    21  10  63 SW5       30.40S WCI  15
$$

LSZ147-162-310000-
LAKE SUPERIOR

STATION/POSITION TIME  TEMP    WIND        PRES    WAVE
                       AIR SEA DIR/SP/G            HT/PER
                 (UTC) (F)     (DEG/KT/KT) (MB)    (FT/S)
DEVILS ISLAND    2300   16     200/  6/  8 1027.5F
PORT WING        2240   17     170/  6/ 11 1026.1F
SAXON HARBOR     2200   19     210/  4/  8 1027.1
$$

LMZ867-665-643>646-310000-
LAKE MICHIGAN

STATION/POSITION TIME  TEMP    WIND        PRES    WAVE
                       AIR SEA DIR/SP/G            HT/PER
                 (UTC) (F)     (DEG/KT/KT) (MB)    (FT/S)
NORTHPORT PIER   2200   18     210/  3/  6 1029.5F
SISTER BAY       2213             CALM       N/A
KEWAUNEE LAKESHO 2300   20     250/  2/  5 1028.5F
SHEBOYGAN LAKESH 2300   23     200/  7/  9 1030.9F
PORT WASHINGTON  2240   26     220/  5/  9 1030.1F
MILWAUKEE LAKESH 2300   26     220/ 10/ 11   N/A
KENOSHA   LAKESH 2300   25     190/  6/  9 1029.8F
$$

TC  - TEMPERATURE IN CELSIUS
VSB - VISIBILITY IN STATUTE MILES
WCI - WIND CHILL INDEX
HX  - HEAT INDEX



USA.gov is the U.S. government's official web portal to all federal, state and local government web resources and services.